FENGYUN 1C DEB

Satellite information

Favourite Embed

Satellite Type and Status

DEBRISIN ORBIT

Key statistics

Satellite FENGYUN 1C DEB at a glance.

Uptime

9670

Days in orbit

Revolutions

≈ 14.1

Per day

Orbit

SSO

Sun Synchronous Orbit

Inclination

98.8

Latest

Satellite identification and parameters

Extended collection of information and parameters for FENGYUN 1C DEB.

Object identification

Identified? True

Debris? True

Object name: FENGYUN 1C DEB

International designator: 1999-025ACS

Object number (NORAD): 30379

Object ID (CCSDS): 30379

Country: PEOPLES REPUBLIC OF CHINA (PRC)

Current information (Y/N): Y

RCS size: SMALL

Orbital parameters

Period: 102.275 minutes

Inclination: 98.7621 deg

SMA: 7244.471 km

Apoapsis: 893.224 km

Periapsis: 839.449 km

RAAN: 319.0017 deg

Eccentricy: 0.00371145

Argument of periapsis: 43.8888 deg

Mean anomaly: 18.9319 deg

Mean motion: 14.07967812 rev/day

Mean motion (dot): 0.00000518 rev/day2

B* drag term: 0.00032803047 1/REarth

Two-line elements (TLE)

Creation date: Oct. 30, 2025, 3:32 a.m.

Reference frame: TEME

Reference center: EARTH

Epoch: Oct. 29, 2025, 11:07 p.m. UTC

TLE line 0: 0 FENGYUN 1C DEB

TLE line 1: 1 30379U 99025ACS 25302.96383160 .00000518 00000-0 32803-3 0 9998

TLE line 2: 2 30379 98.7621 319.0017 0037114 43.8888 18.9319 14.07967812962017

Live tracking on map

Real-time ground track for satellite FENGYUN 1C DEB.

In-orbit conjunctions

A list of the most updated potential collisions computed for object FENGYUN 1C DEB.

Target Orbit TCA Probability of collision Miss distance Type
METEOR 2-17 DEB LEO 2025-03-17 11:31:32 0.0003261965 72.0 (m) DEBRIS
METEOR 2-17 DEB LEO 2024-08-21 14:25:32 0.0001315623 59.0 (m) DEBRIS

Associated space launch

Chinese polar orbiting meteorological satellite

FENGYUN 1C DEB was lifted into orbit during the mission ‘Long March 4B | Feng Yun 1C’, on board a Long March 4B space rocket.

The launch took place on May 10, 1999, 1:33 a.m. from Launch Complex 7.

For more information about the launch, click the button.

Launch to space Long March 4B | Feng Yun 1C
Long March 4B | Feng Yun 1C

Agency: N/A

Status: Launch Successful

Launch date: May 10, 1999, 1:33 a.m. UTC

Rocket: Long March 4B

Launch pad: Launch Complex 7

Location: Taiyuan Satellite Launch Center, People's Republic of China

...

Latest news about this satellite

There are no fresh news available about this satellite. Check back as we update our databases every day.


Newsletter sign-up

Weekly statistics, charts and insights to help you stay on top of the space industry.